Starlink 30959

operational
NORAD ID: 58442 Int'l Des: 2023-183 Owner: SPXS Country: US Constellation: starlink
LEOCIRCULAR

Über Starlink 30959

Beschreibung wird geladen...

Live-Position

3D-Globus wird geladen...

Nächste Überflüge

Höhenverlauf

Altitude vs Time

uPlot chart will show altitude changes over time

Zweizeiliger Elementsatz

1 58442U 23183F 26035.49470256 .00001008 00000-0 89679-4 0 9995
2 58442 43.0023 223.4598 0001318 248.1444 111.9258 15.02547171121723
Epoch: 4. Feb. 2026 • Age: 7 hours

Aktueller Status

Höhe 562.9 km
Geschwindigkeit 7.59 km/s
Subsatellitenpunkt 42.78°N, 93.93°W
Startdatum 28. Nov. 2023
Alter 2.1 years
Typ internet

Technische Details

Klassifizierung Payload
Masse 730.00 kg
Trockenmasse 700.00 kg
Gesamtmasse 730.00 kg
Länge 0.30 m
Durchmesser 4.10 m
Spannweite 29.00 m
Form Box + pan
Hersteller SPXS
Bus-Typ Starlink V2M
Phasenstatus In Orbit
Besitzer/Staat SPXS/US

Große Konstellationen

Loading constellations...